Location: Champs
(48.8539°N, 2.6040°E)
Time: 13:38:44
(UTC+00:00)

Cosmos 1346 Rocket - Pass Details

Date: 26 October 2021
Orbit: 529 x 547 km, 81.2° (Epoch: 06 December)

Event Time Altitude Azimuth Distance (km) Brightness Sun altitude
Exits shadow 04:55:14 29° 287° (WNW) 1,028 3.6 -15.7°
Maximum altitude 04:55:20 29° 290° (WNW) 1,027 3.6 -15.7°
Drops below altitude 10° 04:58:53 10° 352° (N) 1,829 5.4 -15.1°
Sets 05:01:17 0° 4° (N) 2,726 6.4 -14.7°
